ROSLDG Weather Reports


time (UTC)temp
F
wind
direction
speed
knots
gust
knots
rain 1hr
in
rain 24hr
in
rain mn
in
humidity
%
barometer
mb
20210920053315 58 0 0.0 0.0 0.00 0.16 0.12 100
20210920052815 58 0 0.0 0.0 0.01 0.16 0.12 100
20210920052317 58 0 0.0 0.0 0.01 0.16 0.12 100
20210920051816 58 0 0.0 0.0 0.01 0.16 0.12 100
20210920051317 58 0 0.0 0.0 0.01 0.16 0.12 100
20210920050816 58 0 0.0 0.0 0.01 0.16 0.12 100
20210920050316 58 0 0.0 0.0 0.01 0.16 0.12 100
20210920045817 58 0 0.0 0.0 0.01 0.17 0.12 100
20210920045316 58 0 0.0 0.0 0.01 0.17 0.12 100
20210920044816 58 0 0.0 0.0 0.01 0.17 0.12 100
20210920043317 58 0 0.0 0.0 0.01 0.17 0.12 100
20210920042816 58 0 0.0 0.0 0.00 0.17 0.12 100
20210920042317 58 0 0.0 0.0 0.00 0.17 0.11 100
20210920041816 58 0 0.0 0.0 0.00 0.17 0.11 100
20210920041317 58 0 0.0 0.0 0.00 0.17 0.11 99
20210920040816 58 0 0.0 0.0 0.00 0.17 0.11 99
20210920040316 59 0 0.0 0.0 0.00 0.17 0.11 99
20210920035816 59 0 0.0 0.0 0.00 0.19 0.11 99
20210920035316 59 0 0.0 0.0 0.00 0.19 0.11 99
20210920034816 59 0 0.0 0.0 0.00 0.19 0.11 98
20210920034317 59 0 0.0 0.0 0.00 0.19 0.11 98
20210920033816 59 0 0.0 0.0 0.00 0.19 0.11 98
20210920033316 59 0 0.0 0.0 0.00 0.19 0.11 98
20210920032816 59 0 0.0 0.0 0.00 0.19 0.11 98
20210920032316 59 0 0.0 0.0 0.00 0.19 0.11 98
20210920031816 59 0 0.0 0.0 0.00 0.19 0.11 98
20210920031317 59 0 0.0 0.0 0.00 0.19 0.11 98
20210920030816 59 0 0.0 0.0 0.00 0.19 0.11 97
20210920030316 59 0 0.0 0.0 0.00 0.19 0.11 97
20210920025816 59 0 0.0 0.0 0.00 0.22 0.11 97
20210920025316 59 0 0.0 0.0 0.00 0.22 0.11 97
20210920024816 59 0 0.0 0.0 0.01 0.22 0.11 97
20210920024316 59 0 0.0 0.0 0.01 0.22 0.11 97
20210920023816 59 0 0.0 0.0 0.01 0.22 0.11 96
20210920023317 59 0 0.0 0.0 0.01 0.22 0.11 96
20210920022816 59 0 0.0 0.0 0.01 0.22 0.11 96
20210920022316 59 0 0.0 0.0 0.01 0.22 0.11 96
20210920021816 60 0 0.0 0.0 0.01 0.22 0.11 96
20210920021317 60 0 0.0 0.0 0.01 0.22 0.11 96
20210920020816 60 0 0.0 0.0 0.01 0.22 0.11 96
20210920020316 60 0 0.0 0.0 0.01 0.22 0.11 95
20210920015816 60 0 0.0 0.0 0.01 0.24 0.11 95
20210920015316 60 0 0.0 0.0 0.01 0.24 0.11 95
20210920014816 60 0 0.0 0.0 0.00 0.24 0.10 95
20210920013816 60 0 0.0 0.0 0.00 0.24 0.10 95
20210920013316 60 0 0.0 0.0 0.00 0.24 0.10 94
20210920012816 60 0 0.0 0.0 0.00 0.24 0.10 94
20210920012316 60 0 0.0 0.0 0.00 0.24 0.10 94
20210920011816 60 0 0.0 0.0 0.00 0.24 0.10 93
20210920011317 61 0 0.0 0.0 0.00 0.24 0.10 93
20210920010817 61 0 0.0 0.0 0.00 0.24 0.10 92
20210920010316 61 0 0.0 0.0 0.00 0.24 0.10 91
20210920005816 61 0 0.0 0.0 0.00 0.27 0.10 91
20210920005315 61 0 0.0 0.0 0.00 0.27 0.10 90
20210920004816 61 0 0.0 0.0 0.00 0.27 0.10 90
20210920004316 62 0 0.0 0.0 0.00 0.27 0.10 90
20210920003816 62 0 0.0 0.0 0.00 0.27 0.10 89
20210920003316 62 0 0.0 0.0 0.00 0.27 0.10 88
20210920002816 62 226 0.0 2.6 0.01 0.27 0.10 88
20210920002315 62 222 0.0 7.8 0.01 0.27 0.10 88
20210920001816 62 75 0.0 2.6 0.01 0.27 0.10 88
20210920001316 62 0 0.0 0.0 0.01 0.27 0.10 87
20210920000816 62 75 0.0 1.7 0.01 0.27 0.10 87
20210920000316 62 75 0.0 3.5 0.01 0.27 0.10 87
20210919235816 62 0 0.0 0.0 0.01 0.29 0.10 87
20210919235318 62 0 0.0 0.0 0.01 0.29 0.10 86
20210919234816 62 191 0.0 1.7 0.01 0.29 0.10 86
20210919234316 62 191 0.0 2.6 0.01 0.29 0.10 85
20210919233816 63 194 0.9 6.1 0.01 0.29 0.10 84
20210919233315 63 0 0.0 0.0 0.01 0.29 0.10 85
20210919232815 63 0 0.0 0.0 0.00 0.29 0.10 85
20210919232318 63 50 0.0 2.6 0.00 0.29 0.09 84
20210919231816 63 23 0.0 0.9 0.00 0.29 0.09 84
20210919231317 63 357 0.0 2.6 0.00 0.29 0.09 83
20210919230816 63 357 0.0 3.5 0.00 0.29 0.09 83
20210919230316 63 357 0.0 1.7 0.00 0.29 0.09 83
20210919225816 63 352 0.0 0.9 0.00 0.32 0.09 82
20210919225317 63 0 0.0 0.0 0.00 0.32 0.09 82
20210919224316 64 36 0.0 3.5 0.00 0.32 0.09 81
20210919223816 63 147 0.0 2.6 0.00 0.32 0.09 82
20210919223316 63 357 0.0 3.5 0.00 0.32 0.09 83
20210919222816 63 0 0.0 0.0 0.00 0.32 0.09 83
20210919222316 63 357 0.0 0.9 0.00 0.32 0.09 83
20210919221816 64 30 0.0 1.7 0.01 0.32 0.09 82
20210919221315 64 357 0.0 3.5 0.01 0.32 0.09 81
20210919220816 64 33 0.0 3.5 0.01 0.32 0.09 82
20210919220315 64 357 0.0 2.6 0.01 0.32 0.09 82
20210919215816 64 357 0.0 1.7 0.01 0.63 0.09 83
20210919215316 63 50 0.0 2.6 0.01 0.63 0.09 83
20210919214954 63 29 0.9 5.2 0.01 0.63 0.09 83
20210919214816 63 29 0.9 5.2 0.01 0.63 0.09 83
20210919214318 63 0 0.0 0.0 0.01 0.63 0.09 85
20210919213816 63 29 0.0 2.6 0.01 0.63 0.09 85
20210919213316 62 0 0.0 0.0 0.01 0.63 0.09 85
20210919212816 62 0 0.0 0.0 0.01 0.63 0.09 84
20210919212316 63 29 0.0 3.5 0.01 0.63 0.09 84
20210919211816 63 357 0.0 4.3 0.00 0.63 0.09 85
20210919211316 63 0 0.0 0.0 0.00 0.63 0.08 85
20210919210817 63 357 0.0 0.9 0.00 0.63 0.08 86
20210919210316 63 0 0.0 0.0 0.00 0.63 0.08 87
20210919205816 62 357 0.0 1.7 0.00 0.63 0.08 86
20210919205316 62 0 0.0 0.0 0.00 0.63 0.08 86
20210919204816 62 0 0.0 0.0 0.00 0.63 0.08 88
20210919203951 62 357 0.0 3.5 0.00 0.63 0.08 88
20210919203816 62 357 0.0 3.5 0.00 0.63 0.08 88
20210919203316 62 22 0.0 0.9 0.00 0.63 0.08 88
20210919202816 62 0 0.0 0.0 0.00 0.63 0.08 88
20210919201816 62 78 0.0 2.6 0.00 0.63 0.08 89
20210919201316 62 78 0.0 2.6 0.00 0.63 0.08 92
20210919200816 62 0 0.0 0.0 0.00 0.63 0.08 93
20210919200316 62 78 0.0 0.9 0.00 0.63 0.08 93
20210919195816 62 0 0.0 0.0 0.01 0.63 0.08 95
20210919195316 61 0 0.0 0.0 0.01 0.63 0.08 95
20210919194816 60 0 0.0 0.0 0.01 0.63 0.08 97
20210919194316 60 0 0.0 0.0 0.01 0.63 0.08 97
20210919193816 60 0 0.0 0.0 0.01 0.63 0.08 97
20210919193316 60 0 0.0 0.0 0.01 0.63 0.08 98
20210919192817 59 0 0.0 0.0 0.01 0.63 0.08 99
20210919192316 59 0 0.0 0.0 0.01 0.63 0.08 99
20210919191816 59 0 0.0 0.0 0.01 0.63 0.08 100
20210919191316 59 0 0.0 0.0 0.01 0.63 0.08 100
20210919190816 60 0 0.0 0.0 0.01 0.63 0.08 100
20210919190315 60 0 0.0 0.0 0.01 0.63 0.08 100
20210919185815 60 0 0.0 0.0 0.00 0.62 0.08 100
20210919185316 60 0 0.0 0.0 0.00 0.62 0.07 100
20210919184818 60 0 0.0 0.0 0.00 0.62 0.07 100
20210919184316 60 0 0.0 0.0 0.00 0.62 0.07 100
20210919183816 60 0 0.0 0.0 0.00 0.62 0.07 100
20210919183316 60 105 0.0 1.7 0.00 0.62 0.07 100
20210919182816 60 105 0.0 2.6 0.00 0.62 0.07 100
20210919182315 59 0 0.0 0.0 0.00 0.62 0.07 100
20210919181815 59 0 0.0 0.0 0.00 0.62 0.07 100
20210919181316 59 0 0.0 0.0 0.00 0.62 0.07 100
20210919180816 59 0 0.0 0.0 0.00 0.62 0.07 100
20210919180315 58 0 0.0 0.0 0.00 0.62 0.07 100
20210919175816 58 0 0.0 0.0 0.00 0.62 0.07 100
20210919175315 58 0 0.0 0.0 0.00 0.62 0.07 100
20210919174816 58 0 0.0 0.0 0.00 0.62 0.07 100
20210919174316 58 0 0.0 0.0 0.00 0.62 0.07 100
20210919173817 58 0 0.0 0.0 0.00 0.62 0.07 100
20210919172816 58 0 0.0 0.0 0.00 0.62 0.07 100
20210919172315 57 0 0.0 0.0 0.00 0.62 0.07 100
20210919171815 57 0 0.0 0.0 0.00 0.62 0.07 100
20210919171316 57 0 0.0 0.0 0.00 0.62 0.07 100
20210919170815 57 0 0.0 0.0 0.00 0.62 0.07 100
20210919165816 56 0 0.0 0.0 0.00 0.62 0.07 100
20210919165315 56 0 0.0 0.0 0.00 0.62 0.07 100
20210919164815 56 0 0.0 0.0 0.01 0.62 0.07 100
20210919164315 56 0 0.0 0.0 0.01 0.62 0.07 100
20210919163815 56 0 0.0 0.0 0.01 0.62 0.07 100
20210919163315 55 0 0.0 0.0 0.01 0.62 0.07 100
20210919162815 55 0 0.0 0.0 0.01 0.62 0.07 100
20210919162315 55 0 0.0 0.0 0.01 0.62 0.07 100
20210919161815 56 0 0.0 0.0 0.01 0.62 0.07 100
20210919161315 56 0 0.0 0.0 0.01 0.62 0.07 100
20210919160815 56 0 0.0 0.0 0.01 0.62 0.07 100
20210919160316 55 0 0.0 0.0 0.01 0.62 0.07 100
20210919155815 55 0 0.0 0.0 0.01 0.61 0.07 100
20210919155315 54 0 0.0 0.0 0.01 0.61 0.07 100
20210919154815 54 0 0.0 0.0 0.00 0.61 0.06 100
20210919154315 54 0 0.0 0.0 0.00 0.61 0.06 100
20210919153816 54 0 0.0 0.0 0.00 0.61 0.06 100
20210919153315 54 0 0.0 0.0 0.00 0.61 0.06 100
20210919152814 53 0 0.0 0.0 0.00 0.61 0.06 100
20210919152315 53 0 0.0 0.0 0.00 0.61 0.06 100
20210919151814 53 0 0.0 0.0 0.00 0.61 0.06 100
20210919151316 53 0 0.0 0.0 0.00 0.61 0.06 100
20210919150816 53 0 0.0 0.0 0.00 0.61 0.06 100
20210919150315 53 0 0.0 0.0 0.00 0.61 0.06 100
20210919145815 53 0 0.0 0.0 0.01 0.61 0.06 100
20210919145314 53 0 0.0 0.0 0.01 0.61 0.06 100
20210919144814 53 0 0.0 0.0 0.01 0.61 0.06 100
20210919144314 53 0 0.0 0.0 0.01 0.61 0.06 100
20210919143816 53 0 0.0 0.0 0.01 0.61 0.06 100
20210919143315 53 0 0.0 0.0 0.01 0.61 0.06 100
20210919142816 53 0 0.0 0.0 0.01 0.61 0.06 100
20210919142316 52 0 0.0 0.0 0.01 0.61 0.06 100
20210919141814 52 0 0.0 0.0 0.01 0.61 0.06 100
20210919141314 52 0 0.0 0.0 0.01 0.61 0.06 100
20210919140815 52 0 0.0 0.0 0.01 0.61 0.06 100
20210919140314 52 0 0.0 0.0 0.01 0.61 0.06 100
20210919135815 52 0 0.0 0.0 0.00 0.60 0.05 100
20210919135315 52 0 0.0 0.0 0.00 0.60 0.05 100
20210919134814 53 0 0.0 0.0 0.00 0.60 0.05 100
20210919134315 53 0 0.0 0.0 0.00 0.60 0.05 100
20210919133815 53 0 0.0 0.0 0.00 0.60 0.05 100
20210919133315 53 0 0.0 0.0 0.00 0.60 0.05 100
20210919132814 53 0 0.0 0.0 0.01 0.60 0.05 100
20210919132315 53 0 0.0 0.0 0.01 0.60 0.05 100
20210919131814 53 0 0.0 0.0 0.01 0.60 0.05 100
20210919131315 53 0 0.0 0.0 0.01 0.60 0.05 100
20210919130816 53 0 0.0 0.0 0.01 0.60 0.05 100
20210919130315 53 0 0.0 0.0 0.01 0.60 0.05 100
20210919125815 53 0 0.0 0.0 0.01 0.59 0.05 100
20210919125314 53 0 0.0 0.0 0.01 0.59 0.05 100
20210919124814 53 0 0.0 0.0 0.01 0.59 0.05 100
20210919124314 53 0 0.0 0.0 0.01 0.59 0.05 100
20210919123814 53 0 0.0 0.0 0.01 0.59 0.05 100
20210919123315 53 0 0.0 0.0 0.01 0.59 0.05 100
20210919122815 53 0 0.0 0.0 0.00 0.59 0.05 100
20210919122316 53 0 0.0 0.0 0.00 0.59 0.04 100
20210919121815 53 0 0.0 0.0 0.01 0.59 0.04 100
20210919121315 53 0 0.0 0.0 0.01 0.59 0.04 100
20210919120814 53 0 0.0 0.0 0.01 0.59 0.04 100
20210919120314 53 0 0.0 0.0 0.01 0.59 0.04 100
20210919115815 53 0 0.0 0.0 0.01 0.58 0.04 100
20210919115314 54 0 0.0 0.0 0.01 0.58 0.04 100
20210919114816 54 0 0.0 0.0 0.01 0.58 0.04 100
20210919114314 54 0 0.0 0.0 0.01 0.58 0.04 100
20210919113815 54 0 0.0 0.0 0.01 0.58 0.04 100
20210919113315 54 0 0.0 0.0 0.01 0.58 0.04 100
20210919112814 54 0 0.0 0.0 0.01 0.58 0.04 100
20210919112314 54 0 0.0 0.0 0.01 0.58 0.04 100
20210919111814 54 0 0.0 0.0 0.00 0.58 0.04 100
20210919111314 54 0 0.0 0.0 0.00 0.58 0.03 100
20210919110816 54 0 0.0 0.0 0.01 0.58 0.03 100
20210919110314 54 0 0.0 0.0 0.01 0.58 0.03 100
20210919105814 54 0 0.0 0.0 0.01 0.57 0.03 100
20210919105314 54 0 0.0 0.0 0.01 0.57 0.03 100
20210919104816 54 0 0.0 0.0 0.01 0.57 0.03 100
20210919104316 54 0 0.0 0.0 0.01 0.57 0.03 100
20210919103814 54 0 0.0 0.0 0.01 0.57 0.03 100
20210919103314 54 0 0.0 0.0 0.01 0.57 0.03 100
20210919102816 54 0 0.0 0.0 0.01 0.57 0.03 100
20210919102315 54 0 0.0 0.0 0.01 0.57 0.03 100
20210919101816 54 0 0.0 0.0 0.01 0.57 0.03 100
20210919101315 54 0 0.0 0.0 0.01 0.57 0.03 100
20210919100814 54 0 0.0 0.0 0.01 0.57 0.03 100
20210919100314 54 0 0.0 0.0 0.01 0.57 0.02 100
20210919095815 54 0 0.0 0.0 0.01 0.56 0.02 100
20210919095314 54 0 0.0 0.0 0.01 0.56 0.02 100
20210919094814 54 0 0.0 0.0 0.01 0.56 0.02 100
20210919094315 54 0 0.0 0.0 0.01 0.56 0.02 100
20210919093814 54 0 0.0 0.0 0.01 0.56 0.02 100
20210919093316 54 0 0.0 0.0 0.01 0.56 0.02 100
20210919092815 54 0 0.0 0.0 0.01 0.56 0.02 100
20210919092314 54 0 0.0 0.0 0.01 0.56 0.02 100
20210919091815 54 0 0.0 0.0 0.01 0.56 0.02 100
20210919091315 54 0 0.0 0.0 0.01 0.56 0.02 100
20210919090815 54 0 0.0 0.0 0.01 0.56 0.01 100
20210919090315 54 0 0.0 0.0 0.01 0.56 0.01 100
20210919085814 54 0 0.0 0.0 0.01 0.55 0.01 100
20210919085315 54 0 0.0 0.0 0.01 0.55 0.01 100
20210919084816 54 0 0.0 0.0 0.01 0.55 0.01 100
20210919084314 54 0 0.0 0.0 0.01 0.55 0.01 100
20210919083814 54 0 0.0 0.0 0.01 0.55 0.01 100
20210919083315 54 0 0.0 0.0 0.01 0.55 0.01 100
20210919082815 54 0 0.0 0.0 0.02 0.55 0.01 100
20210919082315 54 0 0.0 0.0 0.02 0.55 0.01 100
20210919081815 54 0 0.0 0.0 0.02 0.55 0.01 100
20210919081314 54 0 0.0 0.0 0.02 0.55 0.01 100
20210919080314 54 0 0.0 0.0 0.01 0.55 0.00 100
20210919075815 54 0 0.0 0.0 0.01 0.54 0.00 100
20210919075314 54 0 0.0 0.0 0.01 0.54 0.55 100
20210919074814 54 0 0.0 0.0 0.01 0.54 0.55 100
20210919074315 54 0 0.0 0.0 0.01 0.54 0.55 100
20210919073815 54 0 0.0 0.0 0.02 0.54 0.55 100
20210919073314 54 0 0.0 0.0 0.02 0.54 0.55 100
20210919072314 54 0 0.0 0.0 0.01 0.54 0.54 100
20210919071815 54 0 0.0 0.0 0.01 0.54 0.54 100
20210919071314 54 0 0.0 0.0 0.01 0.54 0.54 100
20210919070814 54 0 0.0 0.0 0.01 0.54 0.54 100
20210919070314 54 0 0.0 0.0 0.01 0.54 0.54 100
20210919065814 54 0 0.0 0.0 0.02 0.53 0.54 99
20210919065315 54 0 0.0 0.0 0.02 0.53 0.54 99
20210919064816 54 0 0.0 0.0 0.02 0.53 0.54 99
20210919064314 55 0 0.0 0.0 0.02 0.53 0.54 98
20210919063815 55 0 0.0 0.0 0.01 0.53 0.54 98
20210919063314 55 0 0.0 0.0 0.01 0.53 0.53 97
20210919062815 55 0 0.0 0.0 0.01 0.53 0.53 97
20210919062315 55 0 0.0 0.0 0.01 0.53 0.53 97
20210919061814 55 0 0.0 0.0 0.02 0.53 0.53 96
20210919061315 55 0 0.0 0.0 0.02 0.53 0.53 96
20210919060814 56 0 0.0 0.0 0.02 0.53 0.53 96
20210919060314 56 0 0.0 0.0 0.02 0.53 0.53 96
20210919055815 56 0 0.0 0.0 0.01 0.51 0.53 96
20210919055314 56 0 0.0 0.0 0.01 0.51 0.52 95
20210919054814 56 0 0.0 0.0 0.02 0.51 0.52 95
20210919054314 56 0 0.0 0.0 0.02 0.51 0.52 95
20210919053814 56 0 0.0 0.0 0.02 0.51 0.52 95